[[{"header":{"parameterUnit":"m.s-1","parameterCategory":1,"la1":30.2991,"la2":30.254,"lo1":-89.0895,"lo2":-89.0444,"dy":0.0017,"dx":0.0017,"nx":28,"ny":28,"refTime":"2024-05-10T21:00:00:Z","depth":0,"parameterNumber":2,"parameterNumberName":"U-component_of_WINDS"},"data":[0,0,0,0,0,0,0,0,0,0,0,0,0,0,0,0,0,0,0,0,0,0,0,0,0,0,0,0,0,0,0,0,0,0,0,0,0,0,0,0,0,0,0,0,0,0,0,0,0,0,0,0,0,0,0,0,0,0,-3.0324,-3.0324,0,-3.0394,-3.0395,-3.0396,-3.0354,-3.0352,-3.035,-3.0348,-3.0418,-3.0421,-3.0425,0,0,0,0,0,0,0,0,0,0,0,0,0,-3.0148,-3.0151,-3.0323,-3.0324,-3.0325,-3.0394,-3.0395,-3.0396,-3.0355,-3.0352,-3.035,-3.0347,-3.0416,-3.0421,-3.0425,0,0,0,0,0,0,0,0,0,0,0,0,0,-3.0222,-3.0152,-3.0323,-3.0313,-3.0313,-3.0394,-3.0395,-3.0396,-3.0355,-3.0352,-3.0349,-3.0346,-3.0415,-3.042,-3.0426,-3.052,0,0,-3.0443,-3.0445,0,0,0,0,0,0,0,0,-3.0217,-3.0228,-3.0314,-3.0314,-3.0314,-3.0362,-3.0358,-3.0438,-3.0356,-3.0339,-3.0348,-3.0345,-3.0401,-3.0408,-3.0428,-3.0524,-3.0527,-3.0443,-3.0447,-3.0449,-3.0451,0,0,0,0,0,0,0,-3.0212,-3.0225,-3.0351,-3.0315,-3.0315,-3.0303,-3.031,-3.0373,-3.0386,-3.034,-3.0337,-3.0346,-3.0401,-3.0422,-3.0429,-3.0528,-3.0443,-3.0448,-3.0451,-3.0454,-3.0703,-3.0706,0,0,0,0,0,0,-3.0209,-3.0221,-3.0349,-3.0353,-3.0257,-3.0309,-3.0317,-3.035,-3.0385,-3.0388,-3.0349,-3.0344,-3.0414,-3.0423,-3.0431,-3.0544,-3.0449,-3.0454,-3.0457,-3.07,-3.0704,-3.0707,0,0,0,0,0,0,-3.0205,-3.022,-3.0346,-3.0286,-3.0302,-3.0315,-3.0352,-3.0353,-3.0374,-3.0392,-3.0394,-3.0369,-3.0412,-3.0423,-3.0498,-3.0546,-3.0457,-3.0462,-3.0696,-3.0701,-3.0705,-3.0771,0,0,0,0,0,0,-3.02,-3.0219,-3.0257,-3.0288,-3.0305,-3.0414,-3.0355,-3.0356,-3.0385,-3.0379,-3.0411,-3.0414,-3.0411,-3.049,-3.0504,-3.0552,-3.0466,-3.0692,-3.0698,-3.0704,-3.0764,-3.0777,-3.0788,0,0,0,0,0,-3.0194,-3.0272,-3.0259,-3.0275,-3.0352,-3.0417,-3.0427,-3.0423,-3.0389,-3.0425,-3.0436,-3.0413,-3.0538,-3.0498,-3.0513,-3.0564,-3.0689,-3.0696,-3.0703,-3.0759,-3.0775,-3.0788,0,0,0,0,0,0,-3.0246,-3.0276,-3.0262,-3.0352,-3.0382,-3.041,-3.0456,-3.044,-3.0479,-3.0472,-3.0465,-3.0472,-3.055,-3.0564,-3.0519,-3.0656,-3.0608,-3.0619,-3.0645,-3.066,-3.0672,-3.0667,-3.0471,0,0,0,0,0,-3.0268,-3.0319,-3.0342,-3.0419,-3.0435,-3.0443,-3.0471,-3.0466,-3.0496,-3.0508,-3.0525,-3.0554,-3.06,-3.063,-3.0674,-3.0765,-3.0771,-3.0807,-3.0819,-3.0829,-3.0838,-3.0887,-3.0903,-3.0731,-3.0731,-3.0731,0,0,-3.0313,-3.0336,-3.0369,-3.043,-3.0453,-3.0505,-3.0454,-3.0512,-3.055,-3.0516,-3.0589,-3.0602,-3.0634,-3.0717,-3.0755,-3.0731,-3.0887,-3.0838,-3.0846,-3.085,-3.0896,-3.0912,-3.0927,-3.0736,-3.0735,-3.0735,0,0,-3.0424,-3.0447,-3.0513,-3.0537,-3.0572,-3.0577,-3.0593,-3.0622,-3.063,-3.0702,-3.0678,-3.0722,-3.0802,-3.0825,-3.0848,-3.0965,-3.0944,-3.0979,-3.1042,-3.1089,-3.1102,-3.1114,-3.1156,-3.1171,-3.0988,-3.0988,-3.0988,0,-3.0476,-3.0555,-3.055,-3.0609,-3.0636,-3.0608,-3.0675,-3.0698,-3.0745,-3.0763,-3.0736,-3.0835,-3.0854,-3.0943,-3.0971,-3.099,-3.1007,-3.0976,-3.1101,-3.1113,-3.1124,-3.1164,-3.1179,-3.0992,-3.0992,-3.0991,-3.0991,0,-3.0618,-3.0672,-3.0722,-3.0769,-3.0801,-3.0864,-3.0866,-3.0899,-3.089,-3.0897,-3.097,-3.0992,-3.1039,-3.1059,-3.105,-3.1146,-3.113,-3.1102,-3.1054,-3.1145,-3.1182,-3.1197,-3.0998,-3.0997,-3.0995,-3.0994,0,0,-3.0765,-3.0807,-3.0825,-3.0846,-3.0881,-3.0923,-3.0983,-3.103,-3.1058,-3.109,-3.114,-3.1207,-3.1181,-3.1207,-3.12,-3.1241,-3.1332,-3.1208,-3.1209,-3.1231,-3.1438,-3.146,-3.1478,-3.1318,-3.1321,-3.1323,-3.1436,0,-3.0878,-3.0985,-3.0981,-3.108,-3.113,-3.1104,-3.1156,-3.1182,-3.119,-3.1232,-3.1239,-3.1287,-3.1249,-3.1264,-3.1304,-3.1313,-3.1374,-3.1304,-3.1364,-3.1366,-3.1358,-3.1497,-3.152,-3.1625,-3.145,-3.1452,-3.1454,0,-3.1025,-3.1063,-3.1168,-3.1195,-3.1216,-3.1263,-3.1305,-3.1346,-3.1374,-3.1376,-3.1404,-3.139,-3.1449,-3.1398,-3.1479,-3.1432,-3.1455,-3.1463,-3.1467,-3.1473,-3.1416,-3.1507,-3.1659,-3.1675,-3.1477,-3.1475,-3.1474,0,-3.1122,-3.1199,-3.1272,-3.129,-3.1324,-3.1357,-3.1373,-3.1399,-3.1426,-3.1462,-3.148,-3.1521,-3.1544,-3.1576,-3.1573,-3.1536,-3.1655,-3.1603,-3.1657,-3.1658,-3.1685,-3.1683,-3.1843,-3.1699,-3.1698,-3.1698,-3.1698,0,-3.1249,-3.1314,-3.1316,-3.1361,-3.1432,-3.1425,-3.1496,-3.1507,-3.153,-3.1575,-3.1554,-3.1596,-3.1589,-3.1631,-3.1629,-3.1696,-3.1706,-3.1709,-3.1707,-3.1711,-3.1711,-3.1727,-3.172,-3.1702,-3.1701,-3.1701,-3.17,0,-3.1371,-3.1374,-3.1452,-3.1477,-3.1484,-3.1536,-3.1557,-3.1598,-3.1603,-3.166,-3.1673,-3.168,-3.1728,-3.1728,-3.1783,-3.1781,-3.1863,-3.1853,-3.1854,-3.1852,-3.1907,-3.1902,-3.2083,-3.2106,-3.1946,-3.1948,-3.1949,0,-3.1452,-3.1502,-3.1532,-3.1562,-3.1579,-3.1626,-3.1655,-3.1649,-3.1679,-3.1714,-3.1751,-3.1797,-3.1835,-3.1912,-3.1921,-3.1963,-3.1954,-3.2014,-3.196,-3.1962,-3.1955,-3.1952,-3.1957,-3.2025,-3.2027,-3.2029,-3.203,0,-3.1597,-3.1596,-3.1638,-3.1681,-3.1716,-3.1749,-3.1779,-3.1804,-3.1801,-3.1835,-3.1885,-3.1914,-3.1969,-3.2015,-3.2055,-3.2068,-3.2049,-3.2047,-3.2061,-3.2066,-3.2065,-3.2067,-3.1884,-3.2043,-3.2042,-3.2041,-3.204,-3.2039,-3.1701,-3.1744,-3.1772,-3.1819,-3.1841,-3.187,-3.191,-3.1919,-3.1961,-3.2007,-3.2,-3.2055,-3.208,-3.2131,-3.2148,-3.219,-3.2169,-3.219,-3.2196,-3.2201,-3.2207,-3.2058,-3.2197,-3.2197,-3.2196,-3.2196,-3.2196,0,-3.1845,-3.1861,-3.1905,-3.1948,-3.1985,-3.1963,-3.1995,-3.2027,-3.2076,-3.2102,-3.2139,-3.2195,-3.2239,-3.2251,-3.2292,-3.2324,-3.2315,-3.2335,-3.2333,-3.2336,-3.2224,-3.2207,-3.2341,-3.2341,-3.2341,-3.2341,-3.234,-3.234,-3.1924,-3.1995,-3.1997,-3.2077,-3.2092,-3.2147,-3.2167,-3.2193,-3.2213,-3.2277,-3.2314,-3.2322,-3.2341,-3.2384,-3.2423,-3.2425,-3.2441,-3.2465,-3.2463,-3.2359,-3.2344,-3.233,-3.2315,-3.2468,-3.2468,-3.2572,-3.2573,-3.2573]},{"header":{"parameterUnit":"m.s-1","parameterCategory":1,"la1":30.2991,"la2":30.254,"lo1":-89.0895,"lo2":-89.0444,"dy":0.0017,"dx":0.0017,"nx":28,"ny":28,"refTime":"2024-05-10T21:00:00:Z","depth":0,"parameterNumber":3,"parameterNumberName":"V-component_of_WINDS"},"data":[0,0,0,0,0,0,0,0,0,0,0,0,0,0,0,0,0,0,0,0,0,0,0,0,0,0,0,0,0,0,0,0,0,0,0,0,0,0,0,0,0,0,0,0,0,0,0,0,0,0,0,0,0,0,0,0,0,0,-5.8928,-5.8929,0,-5.9035,-5.9036,-5.9037,-5.8972,-5.8969,-5.8966,-5.8963,-5.9067,-5.9073,-5.9078,0,0,0,0,0,0,0,0,0,0,0,0,0,-5.8661,-5.8666,-5.8928,-5.8929,-5.8931,-5.9035,-5.9036,-5.9038,-5.8973,-5.8969,-5.8965,-5.8961,-5.9065,-5.9072,-5.9079,0,0,0,0,0,0,0,0,0,0,0,0,0,-5.8773,-5.8668,-5.8928,-5.8911,-5.891,-5.9034,-5.9036,-5.9038,-5.8973,-5.8969,-5.8964,-5.896,-5.9063,-5.9072,-5.908,-5.9225,0,0,-5.9106,-5.9109,0,0,0,0,0,0,0,0,-5.8767,-5.8783,-5.8912,-5.8912,-5.8912,-5.8985,-5.898,-5.91,-5.8974,-5.8949,-5.8963,-5.8957,-5.9044,-5.9053,-5.9083,-5.923,-5.9234,-5.9107,-5.9112,-5.9115,-5.9118,0,0,0,0,0,0,0,-5.8759,-5.8778,-5.897,-5.8914,-5.8914,-5.8896,-5.8907,-5.9003,-5.9021,-5.8951,-5.8947,-5.896,-5.9043,-5.9075,-5.9085,-5.9236,-5.9106,-5.9114,-5.9119,-5.9122,-5.9505,-5.951,0,0,0,0,0,0,-5.8753,-5.8772,-5.8967,-5.8973,-5.8827,-5.8904,-5.8916,-5.8966,-5.902,-5.9023,-5.8964,-5.8957,-5.9063,-5.9076,-5.9089,-5.9262,-5.9115,-5.9123,-5.9128,-5.95,-5.9506,-5.9512,0,0,0,0,0,0,-5.8748,-5.8771,-5.8962,-5.8871,-5.8894,-5.8914,-5.897,-5.8971,-5.9004,-5.903,-5.9032,-5.8995,-5.906,-5.9077,-5.9192,-5.9265,-5.9127,-5.9135,-5.9494,-5.9502,-5.9509,-5.961,0,0,0,0,0,0,-5.8741,-5.877,-5.8827,-5.8873,-5.89,-5.9066,-5.8975,-5.8976,-5.9019,-5.9011,-5.9059,-5.9063,-5.9058,-5.9179,-5.92,-5.9274,-5.9141,-5.9488,-5.9497,-5.9506,-5.96,-5.962,-5.9637,0,0,0,0,0,-5.8731,-5.885,-5.883,-5.8854,-5.8972,-5.907,-5.9085,-5.9078,-5.9025,-5.9082,-5.9098,-5.9061,-5.9253,-5.9192,-5.9214,-5.9292,-5.9483,-5.9495,-5.9506,-5.9592,-5.9616,-5.9636,0,0,0,0,0,0,-5.8811,-5.8856,-5.8834,-5.8972,-5.9018,-5.9059,-5.913,-5.9104,-5.9165,-5.9154,-5.9141,-5.9152,-5.9272,-5.9293,-5.9224,-5.9434,-5.9359,-5.9376,-5.9417,-5.944,-5.9458,-5.9451,-5.9148,0,0,0,0,0,-5.8844,-5.8923,-5.8957,-5.9075,-5.9099,-5.9111,-5.9154,-5.9144,-5.9191,-5.9209,-5.9234,-5.9279,-5.9348,-5.9395,-5.9461,-5.9602,-5.9611,-5.9666,-5.9684,-5.9699,-5.9714,-5.9789,-5.9814,-5.9549,-5.9549,-5.9549,0,0,-5.8914,-5.8949,-5.8999,-5.9092,-5.9126,-5.9206,-5.9128,-5.9215,-5.9273,-5.9222,-5.9333,-5.9352,-5.94,-5.9529,-5.9587,-5.955,-5.9789,-5.9714,-5.9726,-5.9732,-5.9803,-5.9828,-5.9851,-5.9557,-5.9555,-5.9554,0,0,-5.9083,-5.9118,-5.922,-5.9256,-5.9309,-5.9316,-5.934,-5.9385,-5.9397,-5.9507,-5.947,-5.9538,-5.9659,-5.9695,-5.9729,-5.991,-5.9878,-5.9931,-6.0028,-6.0101,-6.0122,-6.014,-6.0205,-6.0228,-5.9946,-5.9946,-5.9946,0,-5.9163,-5.9284,-5.9275,-5.9366,-5.9407,-5.9365,-5.9467,-5.9501,-5.9573,-5.9602,-5.9559,-5.971,-5.974,-5.9876,-5.992,-5.9949,-5.9975,-5.9927,-6.012,-6.0138,-6.0155,-6.0217,-6.0241,-5.9952,-5.9951,-5.9951,-5.995,0,-5.9379,-5.9463,-5.9538,-5.9611,-5.966,-5.9756,-5.976,-5.981,-5.9796,-5.9806,-5.9919,-5.9953,-6.0025,-6.0055,-6.0042,-6.0189,-6.0165,-6.0122,-6.0047,-6.0187,-6.0244,-6.0268,-5.9961,-5.9959,-5.9957,-5.9955,0,0,-5.9603,-5.9668,-5.9696,-5.9728,-5.9783,-5.9846,-5.9939,-6.001,-6.0054,-6.0104,-6.018,-6.0283,-6.0244,-6.0282,-6.0272,-6.0336,-6.0476,-6.0285,-6.0286,-6.032,-6.064,-6.0673,-6.07,-6.0455,-6.0459,-6.0463,-6.0636,0,-5.9776,-5.994,-5.9934,-6.0087,-6.0163,-6.0123,-6.0203,-6.0244,-6.0256,-6.032,-6.0332,-6.0405,-6.0347,-6.037,-6.0432,-6.0447,-6.0541,-6.0434,-6.0525,-6.0528,-6.0515,-6.073,-6.0766,-6.0928,-6.0658,-6.0662,-6.0665,0,-6.0,-6.0059,-6.022,-6.0262,-6.0294,-6.0367,-6.0431,-6.0494,-6.0539,-6.0542,-6.0586,-6.0564,-6.0656,-6.0577,-6.0702,-6.063,-6.0666,-6.0678,-6.0684,-6.0693,-6.0606,-6.0746,-6.0979,-6.1004,-6.07,-6.0697,-6.0695,0,-6.0147,-6.0267,-6.0378,-6.0406,-6.0459,-6.0511,-6.0535,-6.0575,-6.0618,-6.0673,-6.0701,-6.0765,-6.0801,-6.085,-6.0846,-6.079,-6.0973,-6.0894,-6.0978,-6.0978,-6.1019,-6.1017,-6.1263,-6.1042,-6.1041,-6.1041,-6.104,0,-6.0341,-6.0441,-6.0445,-6.0514,-6.0624,-6.0614,-6.0723,-6.0741,-6.0777,-6.0846,-6.0814,-6.088,-6.087,-6.0936,-6.0932,-6.1036,-6.1052,-6.1057,-6.1055,-6.1061,-6.106,-6.1085,-6.1074,-6.1047,-6.1046,-6.1044,-6.1043,0,-6.0526,-6.0533,-6.0652,-6.0691,-6.0703,-6.0783,-6.0816,-6.088,-6.0887,-6.0976,-6.0996,-6.1009,-6.1084,-6.1084,-6.1169,-6.1167,-6.1294,-6.1279,-6.128,-6.1278,-6.1361,-6.1354,-6.1633,-6.1669,-6.1423,-6.1425,-6.1427,0,-6.065,-6.0726,-6.0774,-6.082,-6.0847,-6.092,-6.0964,-6.0956,-6.1003,-6.1059,-6.1116,-6.1188,-6.1246,-6.1367,-6.1383,-6.1447,-6.1434,-6.1527,-6.1443,-6.1446,-6.1436,-6.1432,-6.1439,-6.1544,-6.1546,-6.1549,-6.155,0,-6.087,-6.0869,-6.0935,-6.1002,-6.1055,-6.1107,-6.1155,-6.1193,-6.119,-6.1244,-6.1321,-6.1366,-6.1453,-6.1525,-6.1587,-6.1609,-6.158,-6.1576,-6.1599,-6.1606,-6.1604,-6.1607,-6.1326,-6.1571,-6.1568,-6.1567,-6.1566,-6.1565,-6.1028,-6.1094,-6.1138,-6.1212,-6.1247,-6.1292,-6.1354,-6.137,-6.1435,-6.1507,-6.1497,-6.1583,-6.1623,-6.1704,-6.1731,-6.1797,-6.1764,-6.1797,-6.1805,-6.1814,-6.1824,-6.1593,-6.1808,-6.1807,-6.1807,-6.1806,-6.1806,0,-6.1247,-6.1273,-6.1341,-6.1409,-6.1467,-6.1434,-6.1485,-6.1535,-6.1611,-6.1652,-6.171,-6.1798,-6.1867,-6.1887,-6.1953,-6.2001,-6.1989,-6.2019,-6.2016,-6.2021,-6.1849,-6.1823,-6.2028,-6.2028,-6.2028,-6.2028,-6.2028,-6.2028,-6.1367,-6.1477,-6.1481,-6.1606,-6.163,-6.1716,-6.1748,-6.1788,-6.1821,-6.1921,-6.1979,-6.1992,-6.2024,-6.2092,-6.2153,-6.2157,-6.2183,-6.2219,-6.2217,-6.2056,-6.2034,-6.2012,-6.1988,-6.2224,-6.2224,-6.2384,-6.2386,-6.2387]}]]